NLSK1: Solomon River, Niles, KS

                                SHEF ID:       NLSK1     SOLOMON R AT NILES, KS
STATION TYPE:

PRECIP STAGE RIV-FLOW BAT-LOAD
in ft cfs volt
Ccp-Rev Ccp-Rev Ccp-Rev Ccp-Rev
(America/Chicago)
07/04 00:00 0.00 6.28 331 11.73
07/04 01:00 0.00 6.27 329 11.69
07/04 02:00 0.00 6.26 328 11.77
07/04 03:00 0.00 6.24 325 11.70
07/04 04:00 0.00 6.22 322 11.65
07/04 05:00 0.00 6.21 321 11.62
07/04 06:00 0.00 6.20 320 11.55
07/04 07:00 0.00 6.18 317 11.66
07/04 08:00 0.00 6.17 315 11.59
07/04 09:00 0.00 6.15 313 11.55
07/04 10:00 0.00 6.14 311 11.54
07/04 11:00 0.00 6.12 309 11.47
07/04 12:00 0.00 6.11 307 11.50
07/04 13:00 0.00 6.10 306 11.96
07/04 14:00 0.00 6.09 305 12.12
07/04 15:00 0.00 6.09 305 12.17
07/04 16:00 0.00 6.06 300 12.43
07/04 17:00 0.00 6.06 300 12.27
07/04 18:00 0.00 6.05 299 12.37
07/04 19:00 0.00 6.03 296 12.10
07/04 20:00 0.00 6.02 295 12.00
07/04 21:00 0.00 6.00 292 12.10
07/04 22:00 0.00 5.99 291 12.04
07/04 23:00 0.00 5.98 290 12.01
Data processed at Sun 05Jul2026 04:41 GMT

NOTICE: If you are parsing this page

Please convert to using our Data API. Starting early 2026 we will be migrating to: https://water.usace.army.mil with modern pages rendered in JavaScript. When this migration completes you will no longer be able to scrape this page! CWMSDataAPI (CDA)

Timeseries IDs (TSIDs)

TSIDs used from left to right in the data table
NLSK.Precip-Inc.Total.1Hour.1Hour.Ccp-Rev
NLSK.Stage.Inst.1Hour.0.Ccp-Rev
NLSK.Flow.Inst.1Hour.0.Ccp-Rev
NLSK.Volt-Battery Load.Inst.1Hour.0.Ccp-Rev

                            

All information presented herein is the property of the government of the United States of America and may be revised or deleted at any time without prior notice. Dissemination of this information without the expressed written consent of the Public Affairs Office, Tulsa District U.S. Army Corps of Engineers is strictly prohibited. These data are gathered electronically and, as presented, have NOT undergone any form of quality control. These data are NOT guaranteed to be valid or correct.